User: anonymous   Login
Location: Brodeslavy
(49.9527°N, 13.5567°E)
Time: 20:42:46
(UTC+00:00)
Language:

Cosmos 2233 Rocket - Orbit

View from above orbital plane
View from above orbital plane
View from above satellite
View from above satellite

Ground track
Ground track

The orbit is defined by the following mean orbital elements,

1 22488U          26129.53859852 +.00000000 +00000-0 +61084-5 0 00006
2 22488  82.9436 180.7125 0026693 119.2492 349.5848 13.78000130    00
Epoch (UTC): 09 May 2026 12:55:34
Eccentricity: 0.0026693
inclination: 82.9436°
perigee height: 951 km
apogee height: 991 km
right ascension of ascending node: 180.7125°
argument of perigee: 119.2492°
revolutions per day: 13.78000130
mean anomaly at epoch: 349.5848°

The dashed part of the orbit path shows where the satellite is in the earth's shadow,  

DLR